Weather History for KJMR - May, 2013

Change the Weather History Date:

Wednesday, May 22, 2013

  Actual Average Record
Temperature  
Mean Temperature 42 °F -  
Max Temperature 48 °F 71 °F 93 °F (1964)
Min Temperature 37 °F 44 °F 23 °F (1987)
Degree Days  
Heating Degree Days 22    
Moisture  
Dew Point 40 °F    
Average Humidity 87    
Maximum Humidity 93    
Minimum Humidity 76    
Precipitation  
Precipitation 0.07 in - - ()
Sea Level Pressure  
Sea Level Pressure 29.86 in    
Wind  
Wind Speed 6 mph (NE)    
Max Wind Speed 12 mph    
Max Gust Speed 24 mph    
Visibility 9 miles    
Events Rain    
Averages and records for this station are not official NWS values.
T = Trace of Precipitation, MM = Missing Value Source: NWS Daily Summary

Daily Weather History Graph

Daily Weather History Graph

Search for Another Location

Airport or City:

Trip Planner

Search our weather history database for the weather conditions in past years. The results will help you decide how hot, cold, wet, or windy it might be!

Date:

Astronomy

May. 22, 2013 Rise Set
Actual Time 5:33 AM CDT 8:46 PM CDT
Civil Twilight 4:57 AM CDT 9:22 PM CDT
Nautical Twilight 4:10 AM CDT 10:09 PM CDT
Astronomical Twilight 3:13 AM CDT 11:07 PM CDT
Moon 6:02 PM CDT (5/22) 3:47 AM CDT (5/22)
Length of Visible Light 16h 25m
Length of Day
15h 12m
Waxing Gibbous, 91% of the Moon is Illuminated
May 22
Waxing Gibbous
May 24
Full
May 31
Last Quarter
Jun 8
New
Jun 16
First Quarter

Hourly Weather History & Observations

Time (CDT) Temp. Windchill Dew Point Humidity Pressure Visibility Wind Dir Wind Speed Gust Speed Precip Events Conditions
12:11 AM 41.0 °F 36.4 °F 37.4 °F 87% 29.77 in 10.0 mi NE 6.9 mph - N/A   Overcast
12:31 AM 41.0 °F 36.4 °F 37.4 °F 87% 29.77 in 10.0 mi NE 6.9 mph - N/A   Overcast
12:51 AM 42.8 °F 38.6 °F 39.2 °F 87% 29.77 in 10.0 mi NE 6.9 mph - N/A   Overcast
1:11 AM 42.8 °F 38.0 °F 41.0 °F 93% 29.77 in 10.0 mi ENE 8.1 mph - N/A   Overcast
1:31 AM 42.8 °F 41.1 °F 41.0 °F 93% 29.77 in 10.0 mi NE 3.5 mph - N/A   Overcast
1:51 AM 42.8 °F 39.3 °F 37.4 °F 81% 29.76 in 10.0 mi NE 5.8 mph - N/A   Overcast
2:11 AM 41.0 °F 37.1 °F 37.4 °F 87% 29.76 in 10.0 mi ENE 5.8 mph - N/A   Drizzle
2:31 AM 41.0 °F 37.1 °F 37.4 °F 87% 29.76 in 7.0 mi ENE 5.8 mph - N/A   Light Drizzle
2:51 AM 41.0 °F 37.1 °F 37.4 °F 87% 29.77 in 10.0 mi NE 5.8 mph - N/A   Overcast
3:11 AM 41.0 °F 36.4 °F 37.4 °F 87% 29.76 in 7.0 mi NE 6.9 mph - N/A   Heavy Drizzle
3:31 AM 39.2 °F 35.9 °F 37.4 °F 93% 29.76 in 4.0 mi NE 4.6 mph - 0.01 in   Drizzle
3:51 AM 39.2 °F 35.0 °F 37.4 °F 93% 29.77 in 5.0 mi NE 5.8 mph - 0.01 in   Heavy Drizzle
4:11 AM 39.2 °F 35.0 °F 37.4 °F 93% 29.77 in 4.0 mi NE 5.8 mph - 0.01 in Rain Heavy Rain
4:31 AM 37.4 °F 32.8 °F 35.6 °F 93% 29.77 in 5.0 mi NE 5.8 mph - 0.02 in   Drizzle
4:51 AM 39.2 °F 35.9 °F 37.4 °F 93% 29.78 in 7.0 mi NE 4.6 mph - 0.02 in   Light Drizzle
5:11 AM 39.2 °F 35.9 °F 37.4 °F 93% 29.78 in 10.0 mi ENE 4.6 mph - N/A   Overcast
5:31 AM 39.2 °F 35.0 °F 37.4 °F 93% 29.79 in 10.0 mi ENE 5.8 mph - N/A   Overcast
5:51 AM 41.0 °F 37.1 °F 37.4 °F 87% 29.79 in 10.0 mi NE 5.8 mph - N/A   Overcast
6:11 AM 41.0 °F 38.0 °F 37.4 °F 87% 29.79 in 10.0 mi ENE 4.6 mph - N/A   Overcast
6:31 AM 41.0 °F 38.0 °F 37.4 °F 87% 29.79 in 10.0 mi ENE 4.6 mph - N/A   Overcast
6:51 AM 41.0 °F 38.0 °F 37.4 °F 87% 29.78 in 10.0 mi NE 4.6 mph - N/A   Overcast
7:11 AM 42.8 °F 41.1 °F 41.0 °F 93% 29.78 in 10.0 mi NE 3.5 mph - N/A   Overcast
7:31 AM 42.8 °F 39.3 °F 41.0 °F 93% 29.79 in 10.0 mi ENE 5.8 mph - N/A   Overcast
7:51 AM 42.8 °F 39.3 °F 41.0 °F 93% 29.80 in 10.0 mi NE 5.8 mph - N/A   Overcast
8:11 AM 42.8 °F 39.3 °F 41.0 °F 93% 29.80 in 10.0 mi NE 5.8 mph - N/A   Overcast
8:31 AM 42.8 °F 38.6 °F 41.0 °F 93% 29.81 in 10.0 mi NE 6.9 mph - N/A   Overcast
8:51 AM 42.8 °F 39.3 °F 41.0 °F 93% 29.80 in 10.0 mi NE 5.8 mph 16.1 mph N/A   Overcast
9:11 AM 42.8 °F 39.3 °F 41.0 °F 93% 29.81 in 10.0 mi NE 5.8 mph - N/A   Overcast
9:31 AM 44.6 °F 40.2 °F 42.8 °F 93% 29.81 in 10.0 mi NE 8.1 mph - N/A   Overcast
9:51 AM 44.6 °F 39.7 °F 41.0 °F 87% 29.81 in 10.0 mi NE 9.2 mph - N/A   Overcast
10:11 AM 44.6 °F 40.2 °F 41.0 °F 87% 29.82 in 10.0 mi NE 8.1 mph 16.1 mph N/A   Overcast
10:31 AM 44.6 °F 40.2 °F 41.0 °F 87% 29.82 in 10.0 mi NE 8.1 mph 17.3 mph N/A   Overcast
10:51 AM 44.6 °F 39.2 °F 41.0 °F 87% 29.83 in 10.0 mi NE 10.4 mph 16.1 mph N/A   Overcast
11:11 AM 44.6 °F 38.8 °F 41.0 °F 87% 29.83 in 10.0 mi NE 11.5 mph 19.6 mph N/A   Overcast
11:31 AM 44.6 °F 40.7 °F 41.0 °F 87% 29.83 in 10.0 mi NE 6.9 mph 24.2 mph N/A   Overcast
11:51 AM 44.6 °F 40.2 °F 41.0 °F 87% 29.84 in 10.0 mi NNE 8.1 mph 17.3 mph N/A   Overcast
12:11 PM 44.6 °F 39.7 °F 41.0 °F 87% 29.84 in 10.0 mi NE 9.2 mph 17.3 mph N/A   Overcast
12:31 PM 44.6 °F 40.7 °F 41.0 °F 87% 29.84 in 10.0 mi NNE 6.9 mph 19.6 mph N/A   Overcast
12:51 PM 44.6 °F 39.7 °F 41.0 °F 87% 29.85 in 10.0 mi NE 9.2 mph - N/A   Light Drizzle
1:11 PM 44.6 °F 39.7 °F 41.0 °F 87% 29.85 in 7.0 mi NNE 9.2 mph 19.6 mph N/A Rain Light Rain
1:31 PM 44.6 °F 39.7 °F 41.0 °F 87% 29.85 in 5.0 mi NNE 9.2 mph 18.4 mph N/A   Drizzle
1:51 PM 44.6 °F 38.8 °F 41.0 °F 87% 29.86 in 5.0 mi NE 11.5 mph 19.6 mph N/A   Overcast
2:11 PM 44.6 °F 40.2 °F 41.0 °F 87% 29.86 in 10.0 mi NE 8.1 mph 19.6 mph N/A   Overcast
2:29 PM 44.6 °F 39.2 °F 41.0 °F 87% 29.87 in 7.0 mi NE 10.4 mph 20.7 mph N/A   Overcast
2:51 PM 44.6 °F 40.7 °F 41.0 °F 87% 29.87 in 10.0 mi NNE 6.9 mph 17.3 mph N/A   Light Drizzle
3:11 PM 44.6 °F 39.2 °F 41.0 °F 87% 29.88 in 5.0 mi NE 10.4 mph 23.0 mph N/A Rain Rain
3:31 PM 44.6 °F 39.7 °F 41.0 °F 87% 29.89 in 4.0 mi NNE 9.2 mph 21.9 mph 0.02 in   Drizzle
3:51 PM 44.6 °F 40.2 °F 42.8 °F 93% 29.90 in 7.0 mi NE 8.1 mph 20.7 mph 0.02 in   Drizzle
4:11 PM 44.6 °F 39.2 °F 42.8 °F 93% 29.90 in 5.0 mi NE 10.4 mph 20.7 mph N/A   Light Drizzle
4:31 PM 44.6 °F 39.2 °F 42.8 °F 93% 29.91 in 7.0 mi NE 10.4 mph 19.6 mph 0.01 in Rain Rain
4:51 PM 44.6 °F 38.8 °F 41.0 °F 87% 29.92 in 10.0 mi NE 11.5 mph 20.7 mph 0.01 in Rain Rain
5:11 PM 44.6 °F 39.2 °F 41.0 °F 87% 29.92 in 10.0 mi NE 10.4 mph 24.2 mph 0.01 in Rain Light Rain
5:31 PM 44.6 °F 40.2 °F 41.0 °F 87% 29.93 in 10.0 mi NE 8.1 mph 18.4 mph 0.01 in   Drizzle
5:51 PM 44.6 °F 40.2 °F 41.0 °F 87% 29.93 in 10.0 mi NE 8.1 mph - 0.01 in   Light Drizzle
6:11 PM 44.6 °F 40.2 °F 41.0 °F 87% 29.93 in 10.0 mi NE 8.1 mph - N/A   Overcast
6:31 PM 46.4 °F 42.4 °F 41.0 °F 81% 29.93 in 10.0 mi ENE 8.1 mph 17.3 mph N/A   Light Drizzle
6:51 PM 46.4 °F 42.9 °F 41.0 °F 81% 29.95 in 10.0 mi ENE 6.9 mph - N/A   Overcast
7:11 PM 48.2 °F - 42.8 °F 82% 29.96 in 10.0 mi ENE 6.9 mph - N/A Rain Light Rain
7:31 PM 46.4 °F 44.3 °F 41.0 °F 81% 29.96 in 10.0 mi NE 4.6 mph - N/A   Overcast
7:51 PM 46.4 °F 45.2 °F 41.0 °F 81% 29.97 in 10.0 mi NNE 3.5 mph - N/A   Overcast
8:11 PM 46.4 °F 43.5 °F 41.0 °F 81% 29.97 in 10.0 mi NE 5.8 mph - N/A   Overcast
8:31 PM 46.4 °F - 41.0 °F 81% 29.98 in 10.0 mi Calm Calm - N/A   Overcast
8:51 PM 46.4 °F 45.2 °F 41.0 °F 81% 29.98 in 10.0 mi NNE 3.5 mph - N/A   Overcast
9:11 PM 44.6 °F - 39.2 °F 81% 29.99 in 10.0 mi Calm Calm - N/A   Scattered Clouds
9:31 PM 44.6 °F - 39.2 °F 81% 29.99 in 10.0 mi Calm Calm - N/A   Clear
9:51 PM 44.6 °F - 39.2 °F 81% 30.00 in 10.0 mi Calm Calm - N/A   Clear
10:11 PM 44.6 °F - 41.0 °F 87% 30.02 in 10.0 mi Calm Calm - N/A   Clear
10:31 PM 44.6 °F - 39.2 °F 81% 30.02 in 10.0 mi Calm Calm - N/A   Clear
10:51 PM 44.6 °F 43.1 °F 39.2 °F 81% 30.03 in 10.0 mi NNE 3.5 mph - N/A   Clear
11:11 PM 44.6 °F - 37.4 °F 76% 30.04 in 10.0 mi Calm Calm - N/A   Clear
11:31 PM 44.6 °F 42.2 °F 37.4 °F 76% 30.05 in 10.0 mi NE 4.6 mph - N/A   Clear
11:51 PM 44.6 °F 43.1 °F 37.4 °F 76% 30.06 in 10.0 mi NNE 3.5 mph - N/A   Clear